EW8108 Weather Reports


Display with metric or nautical units.
time (UTC)temp
F
wind
direction
speed
MPH
gust
MPH
rain 1hr
in
rain 24hr
in
rain mn
in
humidity
%
barometer
mb
20210625080739 78 250 0.0 0.0 0.00 0.00 0.00 82 975.9
20210625075735 78 224 0.0 2.0 0.00 0.00 0.00 82 975.8
20210625074758 78 224 0.0 6.0 0.00 0.00 0.00 82 975.8
20210625073728 78 232 0.0 4.0 0.00 0.00 0.00 82 975.8
20210625072715 78 240 0.0 7.0 0.00 0.00 0.00 82 975.8
20210625071726 78 262 0.0 9.0 0.00 0.00 0.00 82 975.7
20210625070709 78 230 0.0 4.0 0.00 0.00 0.00 82 975.8
20210625065639 78 217 0.0 3.0 0.00 0.00 0.00 81 975.8
20210625064613 78 246 0.0 0.0 0.00 0.00 0.00 81 975.8
20210625063620 79 230 0.0 3.0 0.00 0.00 0.00 81 975.9
20210625062622 79 232 0.0 0.0 0.00 0.00 0.00 81 975.8
20210625061602 79 210 0.0 0.0 0.00 0.00 0.00 81 975.9
20210625060550 79 235 0.0 7.0 0.00 0.00 0.00 81 976.0
20210625055533 79 53 0.0 0.0 0.00 0.00 0.00 80 975.9
20210625054542 80 213 0.0 4.0 0.00 0.00 0.00 80 975.9
20210625053550 80 242 0.0 0.0 0.00 0.00 0.00 80 975.8
20210625052604 80 250 0.0 9.0 0.00 0.00 0.00 80 975.9
20210625051549 80 252 0.0 5.0 0.00 0.00 0.00 80 975.9
20210625050547 81 273 0.0 4.0 0.00 0.00 0.00 80 975.9
20210625045600 81 235 0.0 0.0 0.00 0.00 0.00 80 975.9
20210625044545 81 148 0.0 6.0 0.00 0.00 0.00 79 975.9
20210625043609 82 248 0.0 0.0 0.00 0.00 0.00 79 976.0
20210625042612 82 151 0.0 6.0 0.00 0.00 0.00 79 975.8
20210625041553 82 32 0.0 4.0 0.00 0.00 0.00 78 975.8
20210625040543 83 251 0.0 0.0 0.00 0.00 0.00 78 975.8
20210625035555 83 250 0.0 0.0 0.00 0.00 0.00 78 975.6
20210625034548 83 213 0.0 5.0 0.00 0.00 0.00 77 975.5
20210625033519 83 248 0.0 0.0 0.00 0.00 0.00 77 975.4
20210625032541 84 237 0.0 0.0 0.00 0.00 0.00 76 975.1
20210625031602 84 237 0.0 0.0 0.00 0.00 0.00 75 975.0
20210625030557 84 248 0.0 0.0 0.00 0.00 0.00 74 974.8
20210625025613 84 236 0.0 0.0 0.00 0.00 0.00 74 974.7
20210625024614 85 215 0.0 1.0 0.00 0.00 0.00 73 974.8
20210625023552 85 240 0.0 0.0 0.00 0.00 0.00 73 974.7
20210625022604 85 234 0.0 0.0 0.00 0.00 0.00 72 974.5
20210625021603 86 211 0.0 4.0 0.00 0.00 0.00 72 974.4
20210625020557 86 241 0.0 0.0 0.00 0.00 0.00 71 974.4
20210625015553 86 273 0.0 1.0 0.00 0.00 0.00 71 974.4
20210625014532 87 249 0.0 1.0 0.00 0.00 0.00 70 974.5
20210625013505 87 244 0.0 0.0 0.00 0.00 0.00 69 974.4
20210625012528 88 224 0.0 0.0 0.00 0.00 0.00 67 974.4
20210625011507 88 196 0.0 0.0 0.00 0.00 0.00 67 974.3
20210625010452 89 236 0.0 5.0 0.00 0.00 0.00 65 974.1
20210625005501 89 46 0.0 2.0 0.00 0.00 0.00 65 974.0
20210625004439 90 263 0.0 7.0 0.00 0.00 0.00 64 973.9
20210625003503 90 254 0.0 5.0 0.00 0.00 0.00 64 973.8
20210625002525 91 5 0.0 1.0 0.00 0.00 0.00 61 973.8
20210625001457 92 101 0.0 2.0 0.00 0.00 0.00 61 973.8
20210625000518 93 248 0.0 0.0 0.00 0.00 0.00 58 973.8
20210624235451 94 119 0.0 1.0 0.00 0.00 0.00 57 973.7
20210624234429 95 49 0.0 3.0 0.00 0.00 0.00 56 973.7
20210624233424 95 184 0.0 0.0 0.00 0.00 0.00 55 973.6
20210624232349 96 231 0.0 4.0 0.00 0.00 0.00 53 973.7
20210624231347 96 275 0.0 4.0 0.00 0.00 0.00 53 973.7
20210624230316 97 242 0.0 7.0 0.00 0.00 0.00 52 973.7
20210624225243 97 272 0.0 0.0 0.00 0.00 0.00 52 973.8
20210624224300 97 238 0.0 8.0 0.00 0.00 0.00 50 973.9
20210624223308 97 215 0.0 8.0 0.00 0.00 0.00 51 973.9
20210624222315 97 275 0.0 5.0 0.00 0.00 0.00 52 974.0
20210624221319 98 232 0.0 4.0 0.00 0.00 0.00 50 974.0
20210624220317 98 229 0.0 5.0 0.00 0.00 0.00 51 974.0
20210624215248 98 253 0.0 2.0 0.00 0.00 0.00 51 974.2
20210624214948 98 261 0.0 0.0 0.00 0.00 0.00 51 974.3
20210624214012 98 232 0.0 1.0 0.00 0.00 0.00 51 974.4
20210624212940 97 155 0.0 2.0 0.00 0.00 0.00 52 974.5
20210624211932 97 69 0.0 5.0 0.00 0.00 0.00 52 974.7
20210624210907 97 250 0.0 6.0 0.00 0.00 0.00 49 974.9
20210624205858 97 279 0.0 8.0 0.00 0.00 0.00 50 974.8
20210624204835 97 213 0.0 5.0 0.00 0.00 0.00 51 975.0
20210624203857 96 221 0.0 5.0 0.00 0.00 0.00 51 975.0
20210624202911 95 252 0.0 6.0 0.00 0.00 0.00 52 975.1
20210624201928 96 229 0.0 7.0 0.00 0.00 0.00 49 975.3
20210624200927 97 246 0.0 5.0 0.00 0.00 0.00 51 975.4
20210624195902 96 221 1.0 8.0 0.00 0.00 0.00 52 975.4
20210624194849 96 90 0.0 8.0 0.00 0.00 0.00 52 975.5
20210624193828 95 239 1.0 8.0 0.00 0.00 0.00 52 975.7
20210624192758 95 241 1.0 8.0 0.00 0.00 0.00 53 975.8
20210624191734 95 205 1.0 7.0 0.00 0.00 0.00 53 975.9
20210624190713 95 246 0.0 8.0 0.00 0.00 0.00 53 976.3
20210624185654 95 229 1.0 7.0 0.00 0.00 0.00 54 976.3
20210624184650 95 268 1.0 10.0 0.00 0.00 0.00 56 976.5
20210624183628 95 227 0.0 7.0 0.00 0.00 0.00 54 976.7
20210624182612 94 212 0.0 5.0 0.00 0.00 0.00 57 976.7
20210624181620 94 190 0.0 6.0 0.00 0.00 0.00 59 976.9
20210624180628 93 188 0.0 8.0 0.00 0.00 0.00 58 977.0
20210624175555 92 254 0.0 8.0 0.00 0.00 0.00 63 977.1
20210624174610 91 200 1.0 7.0 0.00 0.00 0.00 63 977.3
20210624173543 91 213 1.0 4.0 0.00 0.00 0.00 63 977.3
20210624172525 91 223 1.0 6.0 0.00 0.00 0.00 62 977.3
20210624171520 91 250 1.0 6.0 0.00 0.00 0.00 63 977.3
20210624170523 91 217 0.0 5.0 0.00 0.00 0.00 63 977.3
20210624165509 91 227 0.0 4.0 0.00 0.00 0.00 62 977.5
20210624164520 91 223 0.0 6.0 0.00 0.00 0.00 62 977.5
20210624163446 91 199 0.0 7.0 0.00 0.00 0.00 64 977.5
20210624162445 90 267 1.0 7.0 0.00 0.00 0.00 63 977.5
20210624161435 89 194 1.0 6.0 0.00 0.00 0.00 64 977.4
20210624160412 89 286 1.0 3.0 0.00 0.00 0.00 67 977.6
20210624155359 88 252 0.0 9.0 0.00 0.00 0.00 68 977.5
20210624154348 88 254 1.0 9.0 0.00 0.00 0.00 68 977.6
20210624153352 87 249 1.0 7.0 0.00 0.00 0.00 70 977.6
20210624152408 86 240 1.0 7.0 0.00 0.00 0.00 73 977.6
20210624151351 85 254 1.0 9.0 0.00 0.00 0.00 74 977.8
20210624150404 85 229 1.0 9.0 0.00 0.00 0.00 73 977.7
20210624145421 85 251 1.0 9.0 0.00 0.00 0.00 74 977.7
20210624144426 84 252 1.0 9.0 0.00 0.00 0.00 77 977.6
20210624143400 82 232 0.0 6.0 0.00 0.00 0.00 79 977.7
20210624142356 80 246 0.0 7.0 0.00 0.00 0.00 80 977.8
20210624141329 80 242 0.0 5.0 0.00 0.00 0.00 80 977.6
20210624140339 80 238 0.0 4.0 0.00 0.00 0.00 80 977.7
20210624135343 80 242 0.0 0.0 0.00 0.00 0.00 81 977.7
20210624134346 79 228 0.0 5.0 0.00 0.00 0.00 81 977.6
20210624133346 78 286 0.0 4.0 0.00 0.00 0.00 82 977.6
20210624132326 78 209 0.0 2.0 0.00 0.00 0.00 82 977.8
20210624131337 77 246 0.0 0.0 0.00 0.00 0.00 81 977.7
20210624130310 77 226 0.0 1.0 0.00 0.00 0.00 81 977.6
20210624125318 76 227 0.0 5.0 0.00 0.00 0.00 81 977.4
20210624124302 76 227 0.0 0.0 0.00 0.00 0.00 80 977.4
20210624123304 76 227 0.0 0.0 0.00 0.00 0.00 81 977.3
20210624122247 75 227 0.0 0.0 0.00 0.00 0.00 81 977.3
20210624121219 75 229 0.0 0.0 0.00 0.00 0.00 80 977.3
20210624120214 75 229 0.0 0.0 0.00 0.00 0.00 80 977.3
20210624115146 75 230 0.0 0.0 0.00 0.00 0.00 80 977.2
20210624114140 75 230 0.0 0.0 0.00 0.00 0.00 81 977.0
20210624113129 75 230 0.0 0.0 0.00 0.00 0.00 81 976.9
20210624112137 75 230 0.0 0.0 0.00 0.00 0.00 81 977.0
20210624111106 75 230 0.0 0.0 0.00 0.00 0.00 81 977.0
20210624110100 75 229 0.0 0.0 0.00 0.00 0.00 81 976.9
20210624105118 75 230 0.0 0.0 0.00 0.00 0.00 81 976.8
20210624104052 76 232 0.0 0.0 0.00 0.00 0.00 82 977.1
20210624103102 76 228 0.0 0.0 0.00 0.00 0.00 82 977.0
20210624102030 76 239 0.0 2.0 0.00 0.00 0.00 82 977.1
20210624101005 76 241 0.0 2.0 0.00 0.00 0.00 82 977.0
20210624100025 76 244 0.0 2.0 0.00 0.00 0.00 82 977.0
20210624094953 76 249 0.0 3.0 0.00 0.00 0.00 82 977.1
20210624094017 76 253 0.0 1.0 0.00 0.00 0.00 82 977.2
20210624093036 76 253 0.0 3.0 0.00 0.00 0.00 82 977.1
20210624092037 76 247 0.0 4.0 0.00 0.00 0.00 82 977.1
20210624091016 76 221 0.0 0.0 0.00 0.00 0.00 82 977.1
20210624090003 76 254 0.0 0.0 0.00 0.00 0.00 82 977.1
20210624084958 76 258 0.0 5.0 0.00 0.00 0.00 82 977.0
20210624084022 77 229 0.0 7.0 0.00 0.00 0.00 82 977.1
20210624083034 77 238 0.0 4.0 0.00 0.00 0.00 81 977.1
20210624082056 77 255 0.0 0.0 0.00 0.00 0.00 81 977.0